Regional Weather Roundup
Issued by NWS Pendleton, OR

Home | Current Version | Previous Version | Text Only | Print | Product List | Glossary On
Versions: 1 2 3 4 5 6 7 8 9 10 11 12 13 14 15 16 17 18 19 20 21 22 23 24 25 26 27 28 29 30 31 32 33 34 35 36 37 38 39 40 41 42 43 44 45 46 47 48 49 50
581
ASUS46 KPDT 240810
RWRPDT
PENDLETON REGIONAL WEATHER ROUNDUP
NATIONAL WEATHER SERVICE PENDLETON OREGON
100 AM PDT TUE MAY 24 2016

NOTE: FAIR INDICATES FEW OR NO CLOUDS BELOW 12,000 FEET WITH NO
SIGNIFICANT WEATHER AND/OR OBSTRUCTIONS TO VISIBILITY.

# INDICATES UNOFFICIAL STATION AND DATA

WAZ520-240910-
EAST SLOPES OF WASHINGTON CASCADES

CITY            SKY/WX      TMP DP  RH  WIND    PRES   REMARKS
#CLE ELUM HS    N/A         49  41  74  W1      29.85S
#CLE ELUM 2NW   N/A         46  40  79  W2      N/A
#GLENWOOD       N/A         37  35  92  CALM    29.87S
#MANASTASH CYN  N/A         49  36  61  CALM    29.84S
#NELSON 3SW     N/A         42  39  89  CALM    30.07S
#NILE           N/A         44  40  86  CALM    29.14S
#RONALD 2NW     N/A         46  N/A N/A CALM    29.75F
#TEANAWAY 4NE   N/A         43  41  93  CALM    N/A
#TROUT LAKE 1NE N/A         51  43  74  W7      29.87S
#TROUT LAKE 1E  N/A         45  41  86  CALM    29.86S
$$

WAZ521-240910-
SIMCOE HIGHLANDS

CITY            SKY/WX      TMP DP  RH  WIND    PRES   REMARKS
#CENTERVILLE 1SWN/A         48  42  80  W3      29.83S
#GOLDENDALE 1NE N/A         48  35  60  SW2     N/A
#GOLDENDALE 4W  N/A         49  48  96  W7      29.91F
#GOODNOE HILLS  N/A         52  46  80  W10     29.77S
#LYLE 6NE       N/A         52  46  80  CALM    29.84S
$$

WAZ026-240910-
KITTITAS VALLEY

CITY            SKY/WX      TMP DP  RH  WIND    PRES   REMARKS
ELLENSBURG AP   PTCLDY      52  40  63  NW15    29.85S
#ELLENSBURG CWU N/A         51  42  71  N8      29.78S
#ELLENSBURG 3NE N/A         50  42  74  N12     29.85S
#ELLENSBURG     N/A         54  45  71  NW5     N/A
#ELLENSBURG 13S N/A         50  43  77  CALM    N/A
#KITTITAS 4N    N/A         47  39  74  N1      29.89S
#KITTITAS 3S    N/A         43  40  89  CALM    29.83S
#THORP 6N       N/A         47  41  79  N13     29.86S WCI 41
$$

WAZ027-240910-
YAKIMA VALLEY

CITY            SKY/WX      TMP DP  RH  WIND    PRES   REMARKS
SUNNYSIDE AP    PTCLDY      45  42  89  NE3     29.85S
YAKIMA AIRPORT  PTCLDY      57  39  51  NW5     29.85F
YAKIMA-VAGABOND CLEAR       50  39  66  E1      29.84S
#DONALD 2NE     N/A         57  24  28  NW2     28.70S
#GRANDVIEW      N/A         54  41  61  CALM    29.85S
#MABTON         N/A         55  43  64  S3      29.85R
#NACHES 2SW     N/A         54  42  64  W8      29.85S
#TERRACE HTS    N/A         52  40  63  N1      29.80S
#TOPPENISH      N/A         57  42  57  CALM    29.75S
#WEST VALLEY    N/A         55  41  59  CALM    29.82S
#W YAKIMA       N/A         54  42  64  W2      29.83F
#WHITE SWAN 5E  N/A         50  42  74  CALM    29.84R
#WILEY CITY 3W  N/A         46  36  68  CALM    29.83S
$$

WAZ028-240910-
LOWER COLUMBIA BASIN...WASHINGTON

CITY            SKY/WX      TMP DP  RH  WIND    PRES   REMARKS
PASCO           MOCLDY      54  44  69  VRB3    29.84S
PROSSER AWOS    N/A         55  43  64  SW5     29.88S
RICHLAND AWOS   MOCLDY      55  44  66  SW3     29.84R
#BENTON CITY    N/A         56  42  59  W6      29.73R
#CONNELL 5N     N/A         51  43  74  CALM    29.81S
#CONNELL 5NW    N/A         51  44  77  CALM    29.78S
#ELTOPIA 6NW    N/A         55  44  66  CALM    28.80S
#KAHLOTUS       N/A         54  45  71  CALM    29.81R
#KENNEWICK 3S   N/A         55  44  66  N1      29.83S
#PATERSON       N/A         55  46  72  NW1     29.83S
#SAGEMOOR 2W    N/A         53  43  69  SW1     29.67R
#TOUCHET 2S     N/A         57  45  64  SW9     29.81R
#WEST PASCO     N/A         56  42  59  CALM    29.89R
$$

WAZ029-240910-
FOOTHILLS OF THE BLUES...WASHINGTON

CITY            SKY/WX      TMP DP  RH  WIND    PRES   REMARKS
WALLA WALLA AP  CLOUDY      55  41  59  S9      29.86R
#CLYDE 6NW      N/A         52  43  71  CALM    29.82R
#LOWDEN 2SE     N/A         56  45  66  CALM    29.82R
#PLEASANT VIEW 1N/A         52  42  69  S7      29.86S
#PRESCOTT       N/A         50  46  86  CALM    29.82S
#SUDBURY        N/A         62  N/A N/A CALM    N/A
#WHITMAN COLLEGEN/A         58  43  57  SE3     29.89R
#WAITSBURG 8N   N/A         51  20  29  S3      29.71S
#WALLA WALLA 5E N/A         55  43  64  S8      N/A
#WALLA WALLA U  N/A         58  43  57  CALM    29.84R
#WHITMAN MISSIONN/A         57  46  67  CALM    29.85R
$$

WAZ030-240910-
BLUE MOUNTAINS...WASHINGTON

CITY            SKY/WX      TMP DP  RH  WIND    PRES   REMARKS
#DIXIE 5SE      N/A         51  39  63  S7      29.81R
$$

ORZ009-041-WAZ024-240910-
COLUMBIA RIVER GORGE

CITY            SKY/WX      TMP DP  RH  WIND    PRES   REMARKS
HOOD RIVER AP   PTCLDY      50  45  83  CALM    29.91S
THE DALLES AP   PTCLDY      57  45  64  NW9     29.88S
#ARLINGTON AIRPON/A         54  46  74  W5      29.86R
#CELILO DOT     N/A         60  45  58  SW6     N/A
#LYLE           N/A         60  51  72  NW12    29.89S
#MARYHILL 2W    N/A         58  49  72  W2      N/A
#MOSIER 1S      N/A         55  36  49  CALM    29.88S
#MURDOCK        N/A         60  50  69  NW12    29.84S
#RUFUS DOT      N/A         61  47  60  W18     N/A
#SMITHIVILLE    N/A         60  50  69  W12     29.83R

$$

ORZ510-240910-
NORTH CENTRAL OREGON

CITY            SKY/WX      TMP DP  RH  WIND    PRES   REMARKS
#ANTELOPE       N/A         43  39  86  NE2     29.76S
#CHENOWITH 1W   N/A         52  45  77  W25     N/A
#COW CYN RST AREN/A         50  48  93  W2      N/A
#DUFUR 9E       N/A         51  42  71  W8      29.93S
#GRASS VALLEY   N/A         50  42  74  S1      N/A
#GRASS VALLEY 1SN/A         47  41  79  CALM    29.86R
#KENT DOT       N/A         42  35  76  N5      N/A
#MAUPIN SCHOOL  N/A         54  43  66  CALM    29.93S
#MORO SCHOOL    N/A         52  47  83  SW2     29.91R
#SHANIKO 4NW    N/A         46  -58  1  W5      29.91S
#TYGH VALLEY 2NEN/A         48  42  80  NW2     29.88S
#WAPANITIA AIRPON/A         50  43  77  W2      29.89S
#WASCO DOT      N/A         51  43  74  SW2     N/A
#WASCO 5NE      N/A         51  44  77  SW5     29.86S
$$

ORZ511-240910-
CENTRAL OREGON

CITY            SKY/WX      TMP DP  RH  WIND    PRES   REMARKS
BEND AIRPORT    MOCLDY      45  41  86  CALM    29.93S
MADRAS AIRPORT  CLOUDY      54  48  80  N3      29.94F
PRINEVILLE AP   CLOUDY      48  43  83  CALM    29.93S
REDMOND AIRPORT CLEAR       44  39  82  CALM    29.93S
#ASHWOOD SCHOOL N/A         52  44  74  CALM    29.90S
#BEND 1SW       N/A         40  38  92  CALM    N/A
#BEND-AWBREY    N/A         45  41  86  CALM    29.92R
#BEND-KIM LN    N/A         43  40  89  CALM    29.91S
#CULVER         N/A         49  43  80  CALM    29.86F
#CULVER 8W      N/A         45  43  93  CALM    29.93S
#LAKE BILLY CHINN/A         49  N/A N/A CALM    30.01R
#MADRAS 4S      N/A         50  26  39  CALM    29.99S
#POWELL BUTTE 3EN/A         47  42  83  S1      N/A
#POWELL BUTTE   N/A         46  39  76  SE2     29.81S
#PRINEVILLE 3N  N/A         50  43  77  N6      29.88S
#WARM SPRINGS   N/A         55  45  69  CALM    29.90S

$$


ORZ509-240910-
EAST SLOPES OF OREGON CASCADES

CITY            SKY/WX      TMP DP  RH  WIND    PRES   REMARKS
SISTERS AWOS    N/A         48  41  77  CALM    29.92R
#BLUE BOX PASS  N/A         44  N/A N/A CALM    N/A
#CAMP SHERMAN   N/A         39  35  85  CALM    29.96S
#LA PINE DOT    N/A         38  35  89  S1      N/A
#LA PINE 4NW    N/A         35  31  85  CALM    29.94S
#LAVA BUTTE DOT N/A         39  36  89  CALM    N/A
#SISTERS AIRPOR N/A         32  32  100 CALM    30.17S
#SISTERS ODOT   N/A         42  N/A N/A CALM    N/A
#SISTERS 3N     N/A         48  38  68  CALM    29.94S
#SUNRIVER       N/A         40  38  92  CALM    29.92S
#TUMALO 3W      N/A         46  40  79  CALM    29.79R
#WANOGA BUTTE D N/A         37  33  85  CALM    N/A

$$

ORZ044-240910-
LOWER COLUMBIA BASIN...OREGON

CITY            SKY/WX      TMP DP  RH  WIND    PRES   REMARKS
HERMISTON       PTCLDY      58  44  60  SW13    29.85R
#BOARDMAN SCHOOLN/A         57  46  67  S5      29.85S
#ECHO 8SW       N/A         53  45  74  SW3     29.87R
#I-84 EX 198 DOTN/A         57  41  55  E14     N/A
#UMATILLA SCHOOLN/A         53  51  93  CALM    29.91R
#UMATILLA       N/A         55  43  64  S5      29.78R
$$

ORZ507-240910-
NORTHERN FOOTHILLS OF THE BLUES

CITY            SKY/WX      TMP DP  RH  WIND    PRES   REMARKS
PENDLETON AIRPT MOCLDY      55  41  59  SW9     29.86S
#ADAMS 3WNW     N/A         49  41  74  CALM    29.86R
#ATHENA         N/A         51  41  68  S1      29.88R
#CAYUSE         N/A         53  42  66  S2      29.85R
#HELIX SCHOOL   N/A         49  41  74  CALM    29.85R
#HELIX 3N       N/A         48  41  77  N3      29.85S
#HOLDMAN 5SE    N/A         51  44  77  SW1     29.86R
#HOLDMAN 6E     N/A         51  43  74  N3      29.66R
#M-F GROVE ELEM N/A         54  40  59  CALM    29.85R
#M-FREEWATER 5SEN/A         54  43  66  CALM    29.87S
#PENDLETON DNTN N/A         55  36  49  CALM    29.89S
#PDT AQUATIC CTRN/A         55  35  47  CALM    29.87F
#PDT SUNRIDGE   N/A         55  42  61  E2      29.88S
#PENDLETON 7NW  N/A         55  43  64  SW3     N/A
#PILOT ROCK 1S  N/A         53  38  57  S7      29.89R
#PILOT ROCK     N/A         51  39  63  W2      29.90R
#TUTUILLA       N/A         50  42  74  CALM    29.87R
#UMAPINE 2E     N/A         55  45  69  S1      29.83R
#WESTON SCHOOL  N/A         52  39  61  NW6     29.78S

$$

ORZ508-240910-
SOUTHERN FOOTHILLS OF THE BLUES

CITY            SKY/WX      TMP DP  RH  WIND    PRES   REMARKS
LEXINGTON       MOCLDY      52  43  71  S5      29.92S
#AJAX           N/A         51  36  56  S1      27.66R
#CONDON 5W      N/A         46  38  73  W8      29.89S
#FOSSIL SCHOOL  N/A         46  41  83  CALM    29.88R
#HEPPNER EOC    N/A         49  40  71  CALM    29.81R
#HEPPNER 4NE    N/A         48  40  74  CALM    29.87S
#LEXINGTON 2SE  N/A         52  42  69  CALM    29.86S
#RUGGS 5NE      N/A         45  40  82  S2      30.07S
#RUGGS 2SW      N/A         47  39  74  SW6     29.89F

$$

ORZ502-503-240910-
BLUE MOUNTAINS

CITY            SKY/WX      TMP DP  RH  WIND    PRES   REMARKS
MEACHAM         CLOUDY      36  33  89  CALM    29.91R
#BATTLE MTN DOT N/A         41  39  93  CALM    N/A
#CUTSFORTH PARK N/A         36  34  92  CALM    29.69S
#GREENHORN 9SW  N/A         34  32  92  CALM    26.13
#HARDMAN 10S    N/A         61  34  36  N5      30.22S
#HEPPNER 15SE   N/A         40  38  92  CALM    25.44F
#LADD CYN SMT   N/A         38  34  85  N5      N/A
#LADD CREEK ODOTN/A         42  38  86  S2      N/A
#LONG CREEK HS  N/A         42  40  93  CALM    N/A
#N POWDER DOT   N/A         44  38  79  CALM    N/A
#PIKES PEAK     N/A         49  37  63  SW15    27.99S WCI 43
#TOLLGATE       N/A         38  35  89  CALM    29.78S
#TROY SCHOOL    N/A         51  45  80  CALM    29.70S
#UKIAH          N/A         41  38  89  CALM    29.78S
#WESTON 4E      N/A         48  39  71  SW3     29.83S
$$

ORZ505-240910-
JOHN DAY BASIN

CITY            SKY/WX      TMP DP  RH  WIND    PRES   REMARKS
JOHN DAY        CLEAR       46  38  73  S3      29.92R
#DAYVILLE SCHOOLN/A         51  38  61  CALM    29.89R
#MITCHELL       N/A         52  44  74  CALM    30.08S
#MITCHELL 8NW   N/A         48  40  74  CALM    30.09S
#MONUMENT HS    N/A         51  38  61  CALM    29.86R
#MT. VERNON 5SE N/A         44  36  73  CALM    29.87R
#SPRAY SCHOOL   N/A         51  N/A N/A CALM    N/A
#WINLOCK        N/A         44  38  79  CALM    29.89S
$$

ORZ506-240910-
OCHOCO AND JOHN DAY HIGHLANDS

CITY            SKY/WX      TMP DP  RH  WIND    PRES   REMARKS
#HORSE RIDGE DO N/A         40  37  89  E2      N/A
#KEYES SMT DOT  N/A         46  38  73  NW2     N/A
#PAULINA SCHOOL N/A         48  38  68  W2      N/A
#PINE MTN OBS   N/A         36  35  96  NW1     N/A
#SENECA 9NW     N/A         31  29  92  CALM    29.87S
$$

ORZ049-240910-
GRANDE RONDE VALLEY

CITY            SKY/WX      TMP DP  RH  WIND    PRES   REMARKS
LA GRANDE       CLOUDY      43  30  60  E6      29.88S
#COVE           N/A         46  41  83  NE3     29.93S
#COVE SCHOOL    N/A         46  40  79  CALM    29.92R
#COVE 6NW       N/A         43  38  82  CALM    29.78R
#ELGIN 3N       N/A         43  37  79  CALM    29.87S
#ELGIN 1E       N/A         44  38  79  CALM    N/A
#ISLAND CITY 4N N/A         51  49  93  CALM    29.95S
#LADD CYN DOT   N/A         46  39  76  SE14    N/A    WCI 40
#UNION 1S       N/A         45  40  82  CALM    29.78S
$$

ORZ050-240910-
WALLOWA COUNTY

CITY            SKY/WX      TMP DP  RH  WIND    PRES   REMARKS
#ENTERPRISE AP  N/A         49  29  46  CALM    29.84F
#ENTERPRISE HS  N/A         43  38  82  CALM    29.92S
#IMNAHA SCHOOL  N/A         54  47  77  SW3     29.88S
#IMNAHA 10S     N/A         47  42  83  SW2     29.89R
#JOSEPH 3N      N/A         42  33  70  CALM    29.93S
#JOSEPH 3W      N/A         41  37  86  SW3     29.75S
#LOSTINE        N/A         44  39  82  CALM    29.67S
#LOSTINE 3SE    N/A         44  40  86  CALM    29.90S
#MT HOWARD 8000 N/A         33  30  89  W1      29.93S
#PROMISE 1S     N/A         42  38  86  CALM    29.96S
#WALLOWA SCHOOL N/A         43  39  86  CALM    29.87S



$$



USA.gov is the U.S. government's official web portal to all federal, state and local government web resources and services.